This is the latest recevied weather packets stored in our database for station/object KK7NDB. If no packets are shown the sender has not sent any weather packets the latest 1 day(s).
| Time | Temp. | Humidity | Pressure | Rain* | Wind** | Luminosity | Snow |
|---|---|---|---|---|---|---|---|
| 1778058407 | 1.67° C | 90% | 1002.3 hPa | 0 mm | - | 0 W/m² | - |
| 1778057800 | 1.67° C | 92% | 1002.4 hPa | 0.51 mm | - | 0 W/m² | - |
| 1778057496 | 1.67° C | 92% | 1002.4 hPa | 0.51 mm | - | 0 W/m² | - |
| 1778057193 | 1.67° C | 92% | 1002.5 hPa | 2.29 mm | - | 0 W/m² | - |
| 1778056890 | 1.67° C | 92% | 1002.5 hPa | 2.29 mm | - | 0 W/m² | - |
| 1778056587 | 1.67° C | 91% | 1002.1 hPa | 1.78 mm | - | 0 W/m² | - |
| 1778055677 | 3.33° C | 89% | 1002 hPa | 0 mm | - | 0 W/m² | - |
| 1778055375 | 3.33° C | 89% | 1001.7 hPa | 0 mm | - | 0 W/m² | - |
| 1778054770 | 5° C | 93% | 1001.7 hPa | 0 mm | - | 0 W/m² | - |
| 1778053559 | 5° C | 94% | 1000.9 hPa | 0 mm | - | 0 W/m² | - |
| 1778052953 | 5° C | 93% | 1001.2 hPa | 0 mm | - | 0 W/m² | - |
| 1778052650 | 5° C | 93% | 1001.2 hPa | 0 mm | - | 0 W/m² | - |
| 1778052347 | 5° C | 92% | 1001.2 hPa | 1.27 mm | - | 0 W/m² | - |
| 1778052045 | 6.67° C | 81% | 1001.5 hPa | 3.05 mm | - | 0 W/m² | - |
| 1778051743 | 6.67° C | 81% | 1001.6 hPa | 4.83 mm | - | 0 W/m² | - |
| 1778051440 | 6.67° C | 81% | 1001.6 hPa | 3.56 mm | - | 0 W/m² | - |
| 1778051137 | 6.67° C | 81% | 1001.6 hPa | 0 mm | - | 0 W/m² | - |
| 1778050834 | 6.67° C | 81% | 1001.4 hPa | 0.51 mm | - | 0 W/m² | - |
| 1778050228 | 6.67° C | 81% | 1001.4 hPa | 0 mm | - | 0 W/m² | - |
| 1778049925 | 6.67° C | 81% | 1001 hPa | 0 mm | - | 0 W/m² | - |
| 1778049319 | - | - | - | 0 mm | - | - | - |
| 1778049016 | - | - | - | 0 mm | - | - | - |
| 1778048411 | - | - | - | 0 mm | - | - | - |
| 1778047503 | - | - | - | 0 mm | - | - | - |
| 1778047199 | - | - | - | 0 mm | - | - | - |
* Rain latest hour (hover to see other rain measurements)
** Current wind speed in m/s (hover to see current wind gust speed)